Regional Weather Roundup
Issued by NWS Albany, NY

Home | Current Version | Previous Version | Text Only | Print | Product List | Glossary On
Versions: 1 2 3 4 5 6 7 8 9 10 11 12 13 14 15 16 17 18 19 20 21 22 23 24 25 26 27 28 29 30 31 32 33 34 35 36 37 38 39 40 41 42 43 44 45 46 47 48 49 50
426
ASUS41 KALY 231410
RWRALY

NEW YORK STATE HOURLY WEATHER ROUNDUP
NATIONAL WEATHER SERVICE ALBANY NY
1000 AM EDT MON OCT 23 2017

NOTE: "FAIR" INDICATES FEW OR NO CLOUDS BELOW 12,000 FEET WITH NO
SIGNIFICANT WEATHER AND/OR NO OBSTRUCTIONS TO VISIBILITY.

NYZ032-033-038>043-046>054-057>066-NYZ062>081-082-084-231500-
EAST


CITY           SKY/WX    TMP DP  RH WIND       PRES   REMARKS
ALBANY         PTSUNNY   62  54  74 S10       30.27F
GLENS FALLS    SUNNY     59  49  69 S5        30.27F
POUGHKEEPSIE   SUNNY     65  58  78 S5        30.28F
NEWBURGH       PTSUNNY   63  61  94 SE8       30.30F
MONTGOMERY     CLOUDY    62  56  80 CALM      30.28F
WHITE PLAINS   PTSUNNY   63  61  93 SE5       30.29F FOG
ISLIP          PTSUNNY   68  64  87 SE8       30.31F
NEW YORK CITY  PTSUNNY   68  62  81 S7        30.28F
CENTRAL PARK   PTSUNNY   68  62  81 S7        30.31F
$$

NYZ005>009-017-018-044>046-055-056-231500-
CENTRAL


CITY           SKY/WX    TMP DP  RH WIND       PRES   REMARKS
FULTON         PTSUNNY   63  50  62 SE7       30.15F
SYRACUSE       CLOUDY    62  53  72 SE12      30.17F
ROME           MOSUNNY   59  49  69 SE6       30.24F
ELMIRA         CLOUDY    64  56  75 S6        30.16F
BINGHAMTON     CLOUDY    57  53  86 S9G18     30.22F
MONTICELLO     CLOUDY    58  57  97 SE8       30.30F FOG
$$

NYZ026>034-041>043-087-231500-
NORTH


CITY           SKY/WX    TMP DP  RH WIND       PRES   REMARKS
WATERTOWN      MOSUNNY   66  51  58 S13G22    30.12F
FORT DRUM      NOT AVBL
OGDENSBURG     FAIR      63  46  54 S7        30.13F
MASSENA        CLOUDY    63  54  72 CALM      30.15F
SARANAC LAKE   SUNNY     62  40  44 SW9       30.19F
PLATTSBURGH    MOSUNNY   58  47  66 S7        30.20F
$$

NYZ001>004-010>016-019>021-085-231500-
WEST


CITY           SKY/WX    TMP DP  RH WIND       PRES   REMARKS
NIAGARA FALLS  CLOUDY    66  52  60 S9        30.02F
BUFFALO        PTSUNNY   64  53  67 S8        30.03F
DUNKIRK        PTSUNNY   66  53  63 S10       30.02F
JAMESTOWN      MOSUNNY   60  52  74 S16G25    30.07F
WELLSVILLE     CLOUDY    60  51  72 S14G23    30.15F
ROCHESTER      CLOUDY    63  53  70 S12       30.08F
PENN YAN       CLOUDY    62  51  67 S13       30.13F
$$

             KEY
       WCI = WIND CHILL INDEX
       VSB = VISIBILITY
       HX  = HEAT INDEX
$$




USA.gov is the U.S. government's official web portal to all federal, state and local government web resources and services.